#timestamp,LO_Frequency,Hit,StdDev 
1509984015.4,286046994.3,N
1509984035.2,286046995.7,N
1509984055.1,286046996.5,N
1509984056.0,286046996.5,N
1509984075.8,286046997.8,N
1509984095.7,286046994.7,N
1509984115.5,286046993.4,N
1509984135.3,286046995.3,N
1509984155.2,286046996.1,N
1509984175.0,286046995.1,N
1509984175.9,286046995.1,N
1509984195.8,286046997.7,N
1509984215.6,286046993.7,N
1509984235.4,286046993.9,N
1509984255.3,286046990.6,N
1509984275.1,286046992.2,N
1509984295.9,286046992.2,N
1509984315.7,286046996.3,N
1509984335.5,286046995.9,N
1509984355.4,286046991.8,N
1509984375.2,286046993.9,N
1509984395.0,286046999.1,N
1509984396.0,286046999.1,N
1509984415.8,286047003.5,N
1509984435.6,286047003.4,N
1509984455.5,286047004.4,N
1509984475.3,286047004.5,N
1509984495.2,286047004.5,N
1509984515.9,286047003.9,N
1509984535.7,286046999.9,N
1509984555.6,286047005.0,N
1509984575.4,286047005.6,N
1509984595.2,286047000.0,N
1509984615.1,286047000.2,N
1509984616.0,286047000.2,N
1509984635.8,286047003.4,N
1509984655.7,286047008.2,N
1509984675.5,286047013.0,N
1509984695.3,286047012.6,N
1509984715.2,286047012.4,N
1509984735.0,286047008.5,N
1509984735.9,286047008.5,N
1509984755.8,286047006.8,N
1509984775.6,286047008.0,N
1509984795.5,286047008.4,N
1509984815.3,286047008.7,N
1509984835.1,286047009.0,N
1509984855.9,286047010.7,N
1509984875.7,286047008.0,N
1509984895.5,286047007.1,N
1509984915.4,286047001.6,N
1509984935.2,286047001.8,N
1509984955.1,286046996.9,N
1509984956.0,286046996.9,N
1509984975.8,286046998.4,N
1509984995.6,286046998.1,N
1509985015.5,286046999.7,N
1509985035.3,286047005.1,N
1509985055.2,286047006.0,N
1509985075.0,286047005.3,N
1509985075.9,286047005.3,N
1509985095.8,286047003.2,N
1509985115.6,286047005.9,N
1509985135.4,286047002.8,N
1509985155.3,286047003.9,N
1509985175.1,286047006.0,N
1509985195.8,286047003.1,N
1509985215.7,286047006.0,N
1509985235.5,286047004.7,N
1509985255.4,286047004.9,N
1509985275.2,286047002.0,N
1509985295.0,286047004.3,N
1509985296.0,286047004.3,N
1509985315.8,286047001.3,N
1509985335.6,286047004.2,N
1509985355.5,286047003.7,N
1509985375.3,286047013.9,Y
1509985395.2,286047010.3,P
1509985415.9,286047007.2,N
1509985435.7,286047004.8,N
1509985455.6,286046996.7,N
1509985475.4,286046995.9,N
1509985495.2,286046999.0,N
1509985515.1,286046997.4,N
1509985516.0,286046997.4,N
1509985535.8,286046997.3,N
1509985555.7,286047000.3,N
1509985575.5,286046997.8,N
1509985595.3,286046998.0,N
1509985615.2,286046997.5,N
1509985635.0,286047001.1,N
1509985635.9,286047001.1,N
1509985655.8,286046998.3,N
1509985675.6,286047000.2,N
1509985695.4,286047002.9,N
1509985715.3,286047001.7,N
1509985735.1,286047002.8,N
1509985755.8,286047002.5,N
1509985775.7,286046997.2,N
1509985795.5,286046998.1,N
1509985815.3,286047001.7,N
1509985835.2,286047002.3,N
1509985855.0,286047002.1,N
1509985855.9,286047002.1,N
1509985875.8,286047000.7,N
1509985895.6,286046997.8,N
1509985915.4,286046996.7,N
1509985935.3,286047002.1,N
1509985955.1,286046999.8,N
1509985975.9,286047000.8,N
1509985995.7,286047003.2,N
1509986015.5,286047002.5,N
1509986035.4,286046996.8,N
1509986055.2,286046994.7,N
1509986075.1,286046990.4,Y
1509986076.0,286046990.4,P
1509986095.8,286046992.4,N
1509986115.7,286047004.2,N
1509986135.5,286047005.2,N
1509986155.3,286047002.8,N
1509986175.2,286047000.4,N
1509986195.0,286047000.6,N
1509986195.9,286047000.6,N
1509986215.8,286046996.3,N
1509986235.6,286046992.8,N
1509986255.4,286046990.3,N
1509986275.3,286046983.8,Y
1509986295.1,286046990.8,P
1509986315.9,286046993.9,N
1509986335.7,286046995.1,N
1509986355.6,286046994.1,N
1509986375.4,286046990.7,Y
1509986395.2,286046997.4,P
1509986415.1,286046998.9,N
1509986416.0,286046998.9,N
1509986435.8,286046995.4,N
1509986455.7,286046995.0,N
1509986475.5,286046995.8,N
1509986495.4,286046997.9,N
1509986515.2,286046995.7,N
1509986535.0,286046990.5,Y
1509986536.0,286046990.5,P
1509986555.8,286046996.9,N
1509986575.6,286046997.3,N
1509986595.5,286046993.3,N
1509986615.3,286046995.9,N
1509986635.1,286047000.2,N
1509986655.9,286046999.5,N
1509986675.7,286046999.9,N
1509986695.6,286047003.7,N
1509986715.4,286047005.6,N
1509986735.2,286047003.9,N
1509986755.1,286047004.3,N
1509986756.0,286047004.3,N
1509986775.8,286047006.0,N
1509986795.7,286047004.7,N
1509986815.5,286047012.4,N
1509986835.3,286047008.2,N
1509986855.2,286047011.8,N
1509986875.0,286047016.8,N
1509986875.9,286047016.8,N
1509986895.8,286047013.8,N
1509986915.6,286047012.3,N
1509986935.5,286047011.2,N
1509986955.3,286047012.5,N
1509986975.1,286047014.6,N
1509986995.9,286047014.3,N
1509987015.7,286047014.3,N
1509987035.6,286047013.9,N
1509987055.4,286047017.9,N
1509987075.2,286047019.5,N
1509987095.1,286047023.6,Y
1509987115.8,286047012.8,P
1509987135.7,286047014.7,P
1509987155.5,286047015.9,P
1509987175.4,286047020.8,Y
1509987195.2,286047005.9,P
1509987215.1,286046999.8,N
1509987216.0,286046999.8,N
1509987235.8,286046998.7,N
1509987255.6,286046995.9,N
1509987275.5,286046996.4,N
1509987295.3,286046990.2,N
1509987315.2,286046992.3,N
1509987335.9,286046992.1,N
1509987355.7,286046995.0,N
1509987375.6,286046997.4,N
1509987395.4,286046991.7,N
1509987415.3,286046992.8,N
1509987435.1,286046994.6,N
1509987455.9,286046992.5,N
1509987475.7,286046987.4,N
1509987495.5,286046987.0,N
1509987515.4,286046992.7,N
1509987535.2,286046990.2,N
1509987555.1,286046990.0,N
1509987556.0,286046990.0,N
1509987575.8,286046985.5,N
1509987595.6,286046987.3,N
